[[{"header":{"parameterUnit":"m.s-1","parameterCategory":1,"la1":30.2991,"la2":30.254,"lo1":-89.0895,"lo2":-89.0444,"dy":0.0017,"dx":0.0017,"nx":28,"ny":28,"refTime":"2025-11-22T09:00:00:Z","depth":0,"parameterNumber":2,"parameterNumberName":"U-component_of_WINDS"},"data":[0,0,0,0,0,0,0,0,0,0,0,0,0,0,0,0,0,0,0,0,0,0,0,0,0,0,0,0,0,0,0,0,0,0,0,0,0,0,0,0,0,0,0,0,0,0,0,0,0,0,0,0,0,0,0,0,0,0,1.8316,1.8317,0,1.838,1.838,1.8381,1.8391,1.839,1.839,1.8389,1.8457,1.8459,1.8462,0,0,0,0,0,0,0,0,0,0,0,0,0,1.821,1.8212,1.8316,1.8317,1.8318,1.8379,1.838,1.8381,1.8391,1.839,1.839,1.8389,1.8456,1.8459,1.8462,0,0,0,0,0,0,0,0,0,0,0,0,0,1.8263,1.8212,1.8316,1.833,1.8332,1.8379,1.838,1.8381,1.8391,1.839,1.839,1.8389,1.8455,1.8459,1.8462,1.8501,0,0,1.8473,1.8474,0,0,0,0,0,0,0,0,1.826,1.8267,1.8327,1.8329,1.8332,1.8376,1.8368,1.8421,1.8392,1.8369,1.8389,1.8388,1.8431,1.8437,1.845,1.8504,1.8507,1.8473,1.8475,1.8477,1.8478,0,0,0,0,0,0,0,1.8256,1.8264,1.8341,1.8328,1.8331,1.8335,1.8342,1.8378,1.8404,1.8371,1.8372,1.8379,1.8432,1.8447,1.8452,1.8508,1.8473,1.8476,1.8478,1.848,1.8601,1.8602,0,0,0,0,0,0,1.8249,1.8261,1.8339,1.8343,1.8293,1.8338,1.8345,1.8363,1.8404,1.8409,1.838,1.8379,1.8441,1.8448,1.8454,1.8505,1.8477,1.848,1.8482,1.86,1.8601,1.8602,0,0,0,0,0,0,1.8247,1.8256,1.8337,1.8303,1.8313,1.8341,1.836,1.8365,1.8379,1.841,1.8415,1.8389,1.8441,1.8449,1.849,1.8507,1.8482,1.8485,1.8598,1.86,1.8602,1.8604,0,0,0,0,0,0,1.8244,1.8255,1.8269,1.8303,1.8315,1.8369,1.8361,1.8366,1.8385,1.8385,1.8421,1.8426,1.8441,1.8485,1.8493,1.8512,1.8487,1.8597,1.8599,1.8601,1.8603,1.8606,1.8609,0,0,0,0,0,1.824,1.8266,1.8269,1.8279,1.8332,1.837,1.8377,1.8393,1.8386,1.8401,1.8422,1.8425,1.8504,1.8489,1.8499,1.8518,1.8596,1.8599,1.8601,1.8602,1.8605,1.8609,0,0,0,0,0,0,1.8234,1.8271,1.8274,1.8312,1.8338,1.8372,1.8391,1.8396,1.8425,1.8424,1.8443,1.8451,1.8492,1.8509,1.8491,1.856,1.855,1.8554,1.8547,1.8551,1.8554,1.8549,1.849,0,0,0,0,0,1.8237,1.8263,1.8295,1.8326,1.8339,1.8363,1.838,1.839,1.8418,1.8429,1.8452,1.848,1.8512,1.8532,1.8563,1.8606,1.8616,1.8625,1.8627,1.863,1.8634,1.8662,1.8667,1.8611,1.8611,1.8611,0,0,1.8243,1.8267,1.8282,1.8325,1.8346,1.8376,1.8371,1.8402,1.8425,1.8434,1.8474,1.8492,1.8525,1.8568,1.8588,1.8584,1.8652,1.8633,1.8634,1.8637,1.8665,1.867,1.8675,1.8612,1.8612,1.8612,0,0,1.827,1.8289,1.8319,1.8341,1.8373,1.8389,1.8397,1.8431,1.8443,1.8484,1.8492,1.8521,1.8574,1.8598,1.8617,1.8658,1.8664,1.8668,1.8683,1.871,1.8715,1.8719,1.8736,1.8742,1.8672,1.8672,1.8672,0,1.8274,1.8317,1.8333,1.8364,1.8384,1.8395,1.8426,1.8447,1.8488,1.8503,1.8497,1.8567,1.8589,1.864,1.865,1.8664,1.8676,1.8664,1.8712,1.8717,1.8721,1.8738,1.8744,1.8672,1.8672,1.8672,1.8672,0,1.8322,1.8352,1.8372,1.8412,1.8435,1.8466,1.8489,1.851,1.8519,1.8537,1.8581,1.8609,1.8647,1.866,1.8669,1.8713,1.871,1.8708,1.8698,1.8726,1.8743,1.8749,1.8673,1.8673,1.8672,1.8672,0,0,1.8344,1.8395,1.8402,1.8422,1.8461,1.8485,1.8519,1.8556,1.8575,1.8604,1.8635,1.8681,1.8681,1.8703,1.8716,1.8739,1.8774,1.8736,1.8737,1.8744,1.8829,1.8831,1.8838,1.8778,1.8779,1.878,1.8827,0,1.8377,1.8435,1.8453,1.8503,1.8533,1.8545,1.8575,1.8603,1.8622,1.8652,1.8673,1.8707,1.8703,1.8717,1.8741,1.8765,1.8792,1.8761,1.8809,1.881,1.8801,1.8846,1.8847,1.8889,1.8833,1.8834,1.8835,0,1.8422,1.8453,1.8506,1.8544,1.8558,1.8584,1.8622,1.8649,1.8683,1.8696,1.8722,1.8734,1.8772,1.876,1.8816,1.8795,1.8816,1.8831,1.8833,1.8839,1.8825,1.8854,1.8903,1.891,1.8844,1.8844,1.8843,0,1.8436,1.8491,1.8531,1.8547,1.8592,1.8611,1.8631,1.8664,1.8686,1.872,1.8736,1.8773,1.8794,1.8825,1.8847,1.8836,1.8902,1.8891,1.8916,1.8915,1.8929,1.8928,1.8983,1.894,1.894,1.894,1.894,0,1.8471,1.8504,1.8538,1.8562,1.8601,1.8622,1.866,1.8681,1.8711,1.8742,1.8755,1.8784,1.8812,1.8845,1.8864,1.8909,1.8917,1.8931,1.8935,1.893,1.8929,1.8944,1.8943,1.8942,1.8941,1.8941,1.8941,0,1.8493,1.8516,1.8561,1.8601,1.8612,1.8639,1.8674,1.87,1.8721,1.876,1.877,1.8803,1.8844,1.887,1.8921,1.8934,1.8984,1.8987,1.8972,1.8975,1.8999,1.8997,1.9067,1.9078,1.9026,1.9027,1.9027,0,1.8514,1.854,1.8583,1.8605,1.8625,1.8659,1.8683,1.8706,1.8731,1.8774,1.8796,1.8837,1.8872,1.8937,1.8967,1.9008,1.9013,1.9035,1.9019,1.9015,1.9016,1.9015,1.9019,1.9038,1.9038,1.9038,1.9039,0,1.855,1.8562,1.8595,1.8633,1.8661,1.8693,1.8724,1.8742,1.8771,1.8799,1.8841,1.8868,1.8922,1.8965,1.9009,1.9032,1.9042,1.9044,1.9052,1.9047,1.9039,1.9046,1.8981,1.9042,1.9041,1.9041,1.9041,1.9041,1.8574,1.8598,1.8634,1.8672,1.8698,1.8729,1.8756,1.8781,1.8816,1.8861,1.8874,1.8919,1.8957,1.9017,1.9042,1.9079,1.9076,1.9087,1.9091,1.9093,1.9095,1.9032,1.9087,1.9087,1.9087,1.9087,1.9087,0,1.8612,1.8637,1.8671,1.8716,1.8746,1.8752,1.8789,1.8815,1.8854,1.8888,1.8922,1.8973,1.9016,1.905,1.9094,1.9118,1.9124,1.9129,1.9128,1.9134,1.9094,1.9083,1.9124,1.9124,1.9124,1.9124,1.9124,1.9124,1.8636,1.8679,1.8696,1.8754,1.8779,1.8822,1.8843,1.8873,1.89,1.8956,1.8991,1.9013,1.9049,1.9097,1.9138,1.9147,1.9164,1.9169,1.9179,1.9141,1.9137,1.9133,1.9123,1.9172,1.9172,1.9217,1.9217,1.9218]},{"header":{"parameterUnit":"m.s-1","parameterCategory":1,"la1":30.2991,"la2":30.254,"lo1":-89.0895,"lo2":-89.0444,"dy":0.0017,"dx":0.0017,"nx":28,"ny":28,"refTime":"2025-11-22T09:00:00:Z","depth":0,"parameterNumber":3,"parameterNumberName":"V-component_of_WINDS"},"data":[0,0,0,0,0,0,0,0,0,0,0,0,0,0,0,0,0,0,0,0,0,0,0,0,0,0,0,0,0,0,0,0,0,0,0,0,0,0,0,0,0,0,0,0,0,0,0,0,0,0,0,0,0,0,0,0,0,0,0.1198,0.1199,0,0.1214,0.1214,0.1215,0.1208,0.1208,0.1207,0.1207,0.1224,0.1225,0.1226,0,0,0,0,0,0,0,0,0,0,0,0,0,0.1162,0.1162,0.1198,0.1199,0.1199,0.1214,0.1214,0.1215,0.1208,0.1208,0.1207,0.1207,0.1224,0.1225,0.1226,0,0,0,0,0,0,0,0,0,0,0,0,0,0.1178,0.1163,0.1198,0.1197,0.1197,0.1214,0.1214,0.1215,0.1208,0.1208,0.1207,0.1206,0.1223,0.1225,0.1226,0.1245,0,0,0.1229,0.123,0,0,0,0,0,0,0,0,0.1177,0.1179,0.1197,0.1197,0.1197,0.1209,0.1208,0.1225,0.1208,0.1204,0.1207,0.1206,0.1219,0.1221,0.1225,0.1246,0.1246,0.123,0.123,0.1231,0.1231,0,0,0,0,0,0,0,0.1176,0.1178,0.1205,0.1197,0.1198,0.1196,0.1197,0.1211,0.1215,0.1204,0.1204,0.1206,0.1219,0.1224,0.1225,0.1247,0.123,0.1231,0.1231,0.1232,0.1282,0.1282,0,0,0,0,0,0,0.1175,0.1177,0.1204,0.1205,0.1185,0.1197,0.1199,0.1206,0.1215,0.1215,0.1206,0.1205,0.1222,0.1224,0.1226,0.1248,0.1231,0.1232,0.1233,0.1281,0.1282,0.1283,0,0,0,0,0,0,0.1174,0.1177,0.1204,0.1191,0.1194,0.1198,0.1206,0.1206,0.1211,0.1216,0.1217,0.121,0.1222,0.1224,0.124,0.1248,0.1233,0.1234,0.1281,0.1282,0.1282,0.1293,0,0,0,0,0,0,0.1173,0.1177,0.1184,0.1191,0.1195,0.1217,0.1206,0.1207,0.1213,0.1212,0.122,0.1221,0.1222,0.1238,0.1241,0.125,0.1235,0.128,0.1281,0.1282,0.1292,0.1294,0.1296,0,0,0,0,0,0.1171,0.1187,0.1185,0.1188,0.1205,0.1218,0.122,0.122,0.1214,0.1221,0.1224,0.1221,0.1247,0.124,0.1243,0.1252,0.1279,0.1281,0.1282,0.1291,0.1293,0.1296,0,0,0,0,0,0,0.1182,0.1188,0.1186,0.1204,0.121,0.1217,0.1226,0.1223,0.1232,0.1231,0.1231,0.1232,0.1248,0.1252,0.1243,0.127,0.1262,0.1264,0.1268,0.127,0.1272,0.1271,0.1236,0,0,0,0,0,0.1186,0.1196,0.1201,0.1217,0.122,0.1222,0.1228,0.1228,0.1234,0.1237,0.1241,0.1248,0.1258,0.1264,0.1274,0.1292,0.1293,0.13,0.1302,0.1304,0.1305,0.1314,0.1317,0.1287,0.1287,0.1287,0,0,0.1195,0.12,0.1206,0.1219,0.1224,0.1234,0.1225,0.1236,0.1244,0.1239,0.1253,0.1257,0.1264,0.1281,0.1288,0.1284,0.1314,0.1305,0.1307,0.1307,0.1316,0.1319,0.1321,0.1288,0.1288,0.1288,0,0,0.1217,0.1222,0.1235,0.1239,0.1246,0.1248,0.1251,0.1257,0.1259,0.1273,0.1269,0.1278,0.1295,0.13,0.1305,0.1327,0.1324,0.133,0.1341,0.1349,0.1351,0.1353,0.136,0.1363,0.1332,0.1332,0.1332,0,0.1227,0.1243,0.1242,0.1253,0.1258,0.1253,0.1266,0.1271,0.1281,0.1284,0.128,0.13,0.1305,0.1322,0.1327,0.1331,0.1334,0.1329,0.1351,0.1353,0.1355,0.1362,0.1364,0.1332,0.1332,0.1332,0.1332,0,0.1255,0.1265,0.1275,0.1283,0.129,0.1302,0.1302,0.1309,0.1307,0.1309,0.1323,0.1328,0.1338,0.1342,0.1341,0.1358,0.1355,0.1351,0.1343,0.1359,0.1365,0.1367,0.1333,0.1333,0.1333,0.1333,0,0,0.1284,0.1291,0.1295,0.1298,0.1305,0.1313,0.1324,0.1333,0.1338,0.1344,0.1353,0.1367,0.1362,0.1368,0.1367,0.1375,0.139,0.1369,0.1369,0.1372,0.1409,0.1412,0.1415,0.1388,0.1389,0.1389,0.1408,0,0.1306,0.1325,0.1324,0.1342,0.1351,0.1346,0.1356,0.1361,0.1362,0.137,0.1372,0.1381,0.1375,0.1378,0.1385,0.1387,0.1398,0.1386,0.1396,0.1397,0.1394,0.1418,0.1422,0.1439,0.141,0.1411,0.1411,0,0.1334,0.134,0.1359,0.1363,0.1367,0.1376,0.1383,0.139,0.1395,0.1396,0.1401,0.1399,0.141,0.1401,0.1415,0.1407,0.1411,0.1413,0.1414,0.1414,0.1405,0.1419,0.1445,0.1447,0.1415,0.1415,0.1414,0,0.1352,0.1366,0.1379,0.1382,0.1387,0.1393,0.1395,0.14,0.1405,0.1411,0.1414,0.1422,0.1426,0.1432,0.1431,0.1425,0.1446,0.1437,0.1446,0.1446,0.1451,0.145,0.1477,0.1454,0.1454,0.1454,0.1454,0,0.1376,0.1388,0.1387,0.1394,0.1407,0.1405,0.1417,0.1419,0.1423,0.1431,0.1427,0.1434,0.1434,0.1441,0.1441,0.1452,0.1454,0.1455,0.1454,0.1455,0.1455,0.1457,0.1456,0.1455,0.1454,0.1454,0.1454,0,0.1399,0.1399,0.1412,0.1415,0.1416,0.1425,0.1428,0.1435,0.1436,0.1445,0.1448,0.1449,0.1457,0.1457,0.1467,0.1466,0.148,0.1479,0.1478,0.1478,0.1486,0.1485,0.1516,0.1519,0.1494,0.1494,0.1495,0,0.1414,0.1423,0.1427,0.1431,0.1434,0.1441,0.1446,0.1444,0.1449,0.1455,0.1461,0.1469,0.1475,0.1488,0.1489,0.1496,0.1495,0.1505,0.1496,0.1496,0.1494,0.1493,0.1494,0.1507,0.1507,0.1507,0.1507,0,0.1441,0.144,0.1446,0.1452,0.1458,0.1463,0.1467,0.1471,0.147,0.1476,0.1483,0.1488,0.1497,0.1505,0.1511,0.1513,0.151,0.151,0.1512,0.1513,0.1512,0.1511,0.1483,0.1509,0.1509,0.1509,0.1509,0.1509,0.146,0.1467,0.147,0.1477,0.148,0.1484,0.149,0.1491,0.1497,0.1504,0.1503,0.1511,0.1515,0.1523,0.1526,0.1533,0.1529,0.1533,0.1534,0.1534,0.1535,0.1511,0.1534,0.1534,0.1534,0.1534,0.1534,0,0.1485,0.1487,0.1493,0.1499,0.1504,0.15,0.1504,0.1509,0.1516,0.152,0.1526,0.1534,0.1541,0.1543,0.1549,0.1554,0.1552,0.1555,0.1555,0.1555,0.1538,0.1535,0.1556,0.1556,0.1556,0.1556,0.1556,0.1556,0.1499,0.151,0.1509,0.1521,0.1523,0.1531,0.1533,0.1537,0.1539,0.1549,0.1554,0.1555,0.1557,0.1564,0.1569,0.157,0.1572,0.1576,0.1575,0.1559,0.1557,0.1555,0.1552,0.1576,0.1576,0.1592,0.1592,0.1592]}]]